RH
90 89 86 82 78 74 71 71 74 76 78 81 85 91 96 90 81 81 84 86 93 98 100 100 100 99 96 96 98 96 95 93 90 85 76 70 70 71 70 62 54 55 49 36 31 33 35 34 35 39 40 40 42 42 42 41 39 36 34 33 31 30 30
87 91 91 84 79 76 75 76 76 75 76 79 81 86 92 92 87 86 85 85 92 97 99 100 100 100 97 97 98 96 96 95 91 88 81 72 65 62 64 63 57 57 55 42 32 32 35 35 34 37 40 40 40 41 42 41 41 39 36 36 34 31 31
82 85 87 85 79 74 73 72 70 72 74 74 76 79 86 91 91 91 89 86 88 93 98 100 100 100 99 98 98 96 95 96 93 89 84 77 69 61 58 57 54 57 61 50 35 33 36 36 36 36 38 39 39 38 41 42 42 42 40 39 39 36 33
77 78 81 88 87 81 78 75 70 73 75 72 75 78 83 91 94 92 89 84 80 83 91 98 99 98 97 97 98 96 94 95 95 92 87 81 75 67 60 56 51 54 61 55 42 37 37 36 36 37 36 39 41 41 43 46 45 44 45 45 45 43 39
72 69 71 79 82 78 76 76 74 74 73 72 75 79 83 89 93 94 93 87 80 76 78 86 91 94 95 93 93 93 92 91 91 92 90 85 79 73 67 63 58 55 59 58 49 42 40 38 37 39 39 40 44 46 50 52 50 48 49 49 49 49 43
81 76 73 72 71 68 65 66 68 69 69 70 73 75 80 84 87 90 93 91 85 79 75 76 79 85 90 91 89 88 87 87 86 87 88 85 81 76 71 68 65 62 63 63 56 47 44 42 39 40 44 46 45 47 53 57 56 54 54 54 54 50 43
85 85 84 81 77 72 66 63 63 64 66 71 73 72 73 76 80 86 94 94 89 83 75 72 75 80 85 88 89 85 83 82 81 81 81 81 79 76 72 69 68 67 68 70 64 54 47 45 43 41 44 49 48 47 51 56 60 62 60 57 53 47 42
78 80 83 85 83 78 73 69 65 64 66 72 77 75 73 74 75 78 88 94 94 89 78 72 77 81 81 83 87 86 83 80 78 77 76 75 74 73 71 70 70 70 71 73 70 61 52 49 46 43 45 50 52 51 52 53 56 59 59 56 52 48 46
77 80 83 84 81 78 80 82 77 72 72 77 81 81 79 80 78 76 79 83 88 92 88 81 80 80 77 78 82 85 85 82 79 77 75 73 71 70 70 70 70 70 71 73 73 66 58 54 51 47 48 53 54 52 52 53 53 53 53 53 54 55 52
82 87 89 89 89 87 90 93 87 80 79 81 84 84 82 83 84 82 79 76 78 87 92 91 86 82 79 77 78 82 85 85 83 80 77 75 73 71 70 70 72 71 70 71 74 70 63 60 58 51 48 52 54 51 50 51 53 53 53 55 59 60 53
89 91 91 91 93 93 95 96 94 90 86 85 88 88 85 84 84 83 81 79 81 84 89 92 90 87 83 79 79 81 84 85 86 85 82 78 76 74 72 71 73 73 71 70 72 71 67 65 62 55 49 50 52 52 51 51 53 53 54 58 63 63 55
93 94 94 94 94 96 98 97 97 96 91 89 90 91 91 90 87 85 85 86 89 89 88 88 88 89 89 86 85 85 84 84 86 87 87 84 81 79 76 73 72 72 73 71 70 72 71 68 65 59 53 50 51 53 53 51 53 53 54 57 60 60 54
95 95 97 98 98 99 100 99 98 97 94 93 92 91 93 94 93 93 93 94 96 96 94 90 87 88 90 90 89 85 83 85 86 86 88 89 87 85 81 78 75 72 72 70 69 72 73 71 68 64 58 52 51 54 55 55 56 57 57 57 55 54 52
98 97 97 97 98 99 100 99 99 98 95 93 93 93 94 95 96 99 99 99 99 99 99 96 91 90 90 91 90 85 82 86 88 86 88 92 93 90 87 83 79 76 73 70 69 70 70 71 70 68 63 56 53 55 55 56 59 60 60 58 55 54 51
100 99 98 98 98 99 99 96 93 94 94 95 94 93 94 95 97 99 100 100 101 100 99 98 95 94 94 93 92 88 85 88 90 89 91 94 95 93 91 88 85 81 77 74 72 69 68 70 72 72 69 61 56 55 54 55 59 61 62 61 60 61 58
100 100 100 100 99 100 99 93 87 86 88 90 89 87 89 92 94 96 98 99 100 100 99 98 97 97 96 95 93 91 90 91 92 94 95 96 97 96 93 91 88 85 81 77 75 72 71 73 74 76 75 67 59 57 57 60 65 66 65 66 70 73 68
100 100 100 100 100 100 98 93 88 85 85 85 85 85 88 91 93 95 97 97 96 97 97 97 97 97 97 97 97 96 95 95 95 96 96 97 99 98 97 95 91 89 87 83 79 76 76 78 77 78 79 72 64 60 61 67 73 73 71 72 78 81 76
100 100 100 100 100 99 99 96 90 88 88 87 86 87 89 93 97 97 97 97 95 95 95 95 95 96 98 99 99 98 98 97 97 98 97 98 100 100 99 98 95 94 96 94 90 85 83 83 81 81 83 78 69 65 66 68 72 74 75 77 79 80 78
100 100 99 99 99 98 99 98 93 92 94 94 94 94 94 96 100 99 98 98 97 97 98 97 95 94 95 96 95 94 95 97 98 99 99 99 100 100 100 99 97 97 99 99 99 95 92 90 88 88 90 86 77 73 71 69 69 72 77 79 77 76 76
100 101 99 99 100 99 99 100 99 96 92 90 92 95 95 95 97 98 99 99 99 99 100 99 98 96 94 94 93 93 96 99 100 100 99 99 100 100 98 98 98 98 99 100 101 99 97 97 96 97 98 94 87 81 79 77 75 75 77 75 73 74 75
99 99 99 99 99 98 97 98 96 87 78 78 86 93 93 93 95 98 99 100 100 100 100 100 100 99 98 98 98 98 99 100 100 100 100 100 99 96 95 97 99 100 100 100 100 100 99 100 100 100 100 99 94 88 85 85 83 81 79 74 71 72 72
95 93 94 95 93 90 90 91 88 80 76 80 89 94 94 94 96 99 100 100 100 100 100 99 100 99 98 98 99 100 100 98 97 99 100 99 98 97 96 98 100 100 100 100 100 100 100 100 100 100 100 100 96 90 89 88 85 82 80 78 77 74 70
94 91 91 92 91 87 87 89 86 83 83 86 91 95 96 96 97 98 99 100 100 97 96 97 98 96 96 97 99 101 99 96 96 99 99 98 99 100 100 100 100 100 100 100 100 100 100 100 100 100 100 99 94 91 89 87 85 85 84 84 83 77 69
96 95 93 93 91 88 90 92 90 88 88 88 90 96 99 97 97 98 99 100 99 96 94 95 95 94 96 99 100 98 96 95 97 98 98 98 100 100 100 100 100 100 100 100 100 100 100 100 100 100 100 98 95 91 90 89 90 90 82 72 63 55 46
96 95 95 93 92 91 93 93 88 86 88 89 89 93 97 98 99 100 100 100 100 97 96 95 93 94 98 99 97 95 95 96 96 96 96 99 100 100 100 101 100 100 100 100 100 100 100 100 100 99 99 98 95 92 92 91 84 72 56 41 35 32 29
95 95 95 95 95 95 95 91 83 80 86 90 89 90 94 98 100 100 100 100 99 98 98 98 97 97 99 99 97 96 97 98 99 97 98 100 99 99 100 100 99 99 99 98 99 99 99 100 100 99 98 97 95 92 86 74 58 44 35 31 31 33 35
96 97 96 97 99 98 96 93 86 85 89 89 89 94 99 98 99 99 98 98 99 98 99 100 99 99 99 99 99 99 99 99 100 100 99 100 98 98 98 97 96 95 95 96 97 97 97 98 98 97 96 92 85 74 59 44 36 34 36 37 37 41 44
99 99 98 99 101 99 98 97 92 91 94 92 92 99 101 96 95 96 94 94 97 98 99 100 100 100 100 100 100 100 100 100 100 100 100 101 99 98 98 98 97 96 95 95 95 94 95 95 93 91 86 73 58 47 39 36 37 39 40 41 42 45 47
100 100 100 101 100 99 101 100 92 92 96 97 97 100 97 92 91 92 92 94 97 99 100 100 100 100 100 100 100 100 100 100 100 100 100 101 100 100 101 99 98 96 96 94 92 91 90 89 85 78 66 51 41 40 41 43 44 44 43 44 45 47 49
100 100 99 98 98 97 100 100 95 94 98 100 100 99 95 90 90 92 95 98 99 99 99 100 100 100 100 99 99 100 100 100 100 100 100 101 101 100 100 98 96 94 93 92 89 88 86 82 73 61 49 41 42 46 48 48 48 47 45 45 47 50 53
99 100 98 96 96 96 97 98 98 99 100 100 100 99 96 94 94 97 100 98 95 96 98 98 99 100 99 98 97 98 99 99 99 100 100 100 100 98 97 96 94 92 92 90 88 86 81 72 59 48 42 43 46 50 51 52 51 49 49 49 51 54 56
93 97 98 97 97 95 94 94 97 99 99 99 100 100 99 98 99 101 101 94 90 94 97 96 97 98 98 97 98 99 99 98 98 99 99 98 97 96 95 93 92 91 90 88 86 81 71 57 45 40 42 45 48 50 52 53 53 52 53 54 55 57 59
85 93 99 100 98 95 94 95 96 98 100 100 100 100 100 100 100 101 98 90 89 95 97 95 96 98 97 97 99 100 99 98 97 97 96 93 92 91 91 89 88 88 85 82 77 67 54 43 38 40 45 49 49 50 51 52 55 56 56 57 58 60 61
82 88 95 101 100 94 95 97 95 95 99 100 100 100 101 100 100 100 95 89 89 95 97 96 97 98 98 99 100 99 98 97 95 93 90 89 87 85 83 81 78 76 72 66 58 48 40 38 40 44 48 51 51 52 53 54 57 57 58 60 62 62 64
87 89 93 99 100 97 96 95 93 94 98 100 100 99 98 98 99 97 94 93 94 96 96 96 97 98 98 99 99 98 96 95 92 89 86 83 81 76 72 66 62 58 54 47 41 38 38 41 43 45 47 49 51 53 55 56 57 58 59 62 64 65 66
93 93 91 90 94 98 98 95 93 95 99 101 100 95 91 93 96 96 96 97 96 95 96 97 97 97 98 97 97 97 96 93 91 88 84 80 78 73 63 52 46 43 41 39 38 39 41 43 45 47 48 49 50 52 53 55 58 61 63 64 66 67 68
Wind_Speed
29 31 31 29 28 27 27 26 24 22 21 21 22 24 27 28 26 24 24 24 24 25 25 26 26 28 30 30 27 27 27 28 30 30 28 29 30 31 31 28 22 12 6 14 25 28 29 31 34 36 38 38 36 36 35 34 34 34 34 34 33 32 31
27 28 28 27 27 27 26 25 25 24 23 22 22 23 25 28 27 25 25 23 23 24 24 25 26 27 29 29 27 28 28 27 28 29 28 28 27 28 30 30 27 19 8 8 17 23 26 29 32 34 36 38 38 37 37 36 36 35 35 35 34 32 31
27 27 28 28 27 27 27 26 26 26 25 23 23 22 24 27 28 27 27 25 23 22 22 23 24 26 27 26 26 28 28 28 27 27 28 29 28 27 27 28 28 23 13 9 13 21 25 27 31 32 33 37 38 36 37 37 36 36 35 34 33 32 30
26 26 27 27 27 26 26 26 25 26 26 25 23 22 22 25 27 29 28 28 25 22 20 21 22 24 26 25 25 26 27 27 28 28 28 29 29 29 27 25 25 23 17 12 12 18 24 28 30 30 31 35 35 33 35 35 35 35 34 34 33 31 30
23 23 22 22 23 24 24 25 26 26 27 27 26 23 21 22 24 26 27 28 26 23 20 20 22 23 24 24 25 26 26 27 28 28 28 28 27 28 28 26 23 21 19 16 14 16 20 25 27 27 28 32 33 31 30 31 32 34 33 32 32 30 29
22 21 20 20 20 22 23 25 25 26 28 29 28 25 22 20 20 22 25 26 26 24 21 20 23 24 23 23 25 26 26 26 28 28 27 28 27 27 26 24 23 22 20 18 16 17 19 22 25 24 24 29 33 32 30 30 30 31 31 31 30 28 27
25 25 23 22 22 23 24 26 26 27 29 30 30 27 24 22 20 20 22 24 26 25 22 23 26 26 23 22 24 26 26 25 26 27 27 28 28 27 25 23 22 22 21 20 17 17 19 21 24 24 23 27 31 30 30 31 29 26 26 29 29 29 29
29 28 27 26 25 25 26 27 28 28 30 31 30 28 26 25 24 23 22 23 24 25 26 26 27 26 24 22 22 23 25 25 26 26 27 28 27 26 25 24 22 21 21 20 17 17 19 20 21 22 22 24 28 27 26 28 28 25 26 29 29 30 29
31 29 28 27 27 27 28 28 29 29 30 31 30 29 28 27 26 26 25 24 24 24 24 26 27 27 25 23 22 21 22 24 26 27 27 27 26 26 25 23 22 20 20 20 17 16 18 18 19 22 22 23 28 29 25 26 27 26 26 27 26 27 28
31 29 28 26 26 28 28 27 28 29 31 31 30 29 28 28 28 27 27 27 26 24 23 24 26 27 25 23 22 22 22 22 24 26 28 28 27 27 26 24 21 21 22 21 18 18 18 16 17 23 26 26 29 29 26 26 28 25 23 22 20 21 26
31 30 28 26 26 28 28 28 28 29 31 32 31 29 28 27 27 27 26 26 26 25 24 24 25 26 26 26 25 24 23 23 23 25 27 28 28 28 29 28 25 23 23 22 20 20 20 18 19 24 28 27 27 28 28 28 27 24 22 21 17 13 18
29 30 29 27 27 27 27 27 26 26 28 30 30 29 28 28 27 26 26 26 27 27 26 25 25 25 25 26 26 24 24 25 26 26 27 27 28 28 30 31 31 29 27 26 24 21 22 23 22 24 27 28 28 28 28 26 25 25 24 23 19 15 15
29 29 27 26 26 26 25 25 25 25 26 27 28 30 29 28 27 27 27 27 27 28 28 27 26 25 25 26 26 25 26 28 28 27 29 29 29 30 31 33 35 35 33 33 30 25 25 27 25 24 28 31 30 28 27 25 24 25 25 23 21 21 18
28 27 26 26 26 26 25 25 25 24 24 25 26 28 28 26 25 26 27 27 28 27 28 28 27 26 26 28 29 29 30 31 30 30 30 30 30 31 32 34 36 37 36 36 34 32 31 31 28 26 28 31 30 29 29 28 26 26 26 25 23 22 21
26 26 26 25 24 24 23 23 22 21 20 21 21 22 22 23 24 25 26 27 27 27 27 28 27 27 27 27 30 32 33 33 33 32 31 31 31 32 33 34 35 36 36 35 35 36 35 32 30 28 28 30 31 32 31 30 29 27 26 24 21 20 21
24 24 24 23 21 19 19 20 20 19 19 19 19 20 21 23 23 24 25 26 26 26 27 28 29 29 29 30 31 33 34 35 34 32 31 31 31 32 32 33 34 35 36 36 35 35 33 30 29 28 27 28 32 33 31 28 24 23 24 22 18 16 18
23 23 22 22 21 19 19 20 20 19 20 20 21 21 23 23 24 24 25 25 26 27 28 29 30 30 30 31 31 32 34 34 33 32 32 31 31 31 30 31 33 33 33 34 34 34 32 29 28 27 25 27 31 34 32 28 23 23 25 21 13 10 13
25 25 23 21 21 21 21 22 21 19 19 20 22 24 25 25 24 24 25 26 27 28 28 29 30 30 30 31 31 31 31 34 34 34 34 32 30 29 28 29 30 29 28 28 29 30 30 27 26 26 25 27 31 33 32 29 26 26 26 21 13 10 10
27 26 24 21 22 22 22 23 22 21 19 19 20 20 21 21 21 21 22 24 25 26 28 29 30 31 32 32 31 30 30 32 33 35 35 33 29 27 28 29 30 30 28 27 26 27 27 25 24 24 25 26 29 30 29 28 28 28 27 21 16 13 9
28 27 25 23 22 21 21 20 19 16 14 14 14 14 16 17 16 16 18 19 20 22 25 27 30 31 33 34 32 32 32 31 32 35 36 33 29 28 28 29 30 31 31 29 26 26 26 25 25 26 26 26 27 28 27 25 25 26 25 20 17 16 12
25 22 20 18 17 17 16 14 12 11 12 13 13 13 14 16 16 16 16 17 18 20 21 25 27 29 30 31 30 30 30 29 32 34 34 33 32 30 29 29 29 28 28 27 25 26 27 26 27 28 28 27 26 26 24 22 19 19 18 16 14 14 15
19 17 17 17 17 17 15 11 10 10 12 13 12 12 14 15 16 16 15 16 16 17 19 22 24 25 24 23 22 23 23 25 28 30 31 31 29 26 25 27 27 26 26 27 27 28 28 28 28 28 27 26 25 23 22 19 16 15 13 12 12 12 13
15 15 17 17 17 18 16 12 9 10 12 12 11 12 13 13 13 14 14 14 15 16 18 19 20 20 19 18 18 19 20 21 23 25 28 27 23 20 23 27 28 28 29 29 29 28 27 26 28 28 27 25 24 22 20 17 15 13 12 12 12 13 14
15 13 13 14 15 16 16 12 9 10 12 12 12 11 11 10 11 11 12 13 14 15 16 16 17 16 15 15 16 17 17 17 18 23 26 23 20 22 26 29 29 29 30 29 27 26 25 24 26 27 27 25 23 20 18 15 14 12 12 13 14 14 14
16 14 12 12 12 12 13 14 13 14 14 13 12 11 9 10 9 7 9 11 11 11 12 12 12 12 12 12 13 13 13 14 18 24 23 21 21 25 28 29 28 28 28 26 24 23 23 23 24 25 25 24 21 18 16 14 12 12 12 13 13 11 11
16 14 13 12 11 10 11 13 15 16 15 12 12 11 8 4 2 6 7 7 7 8 8 8 9 10 10 11 11 11 12 15 21 23 21 21 25 27 27 28 28 27 26 23 22 23 23 23 23 23 23 21 18 16 13 11 12 12 12 12 11 9 8
17 15 13 12 11 12 13 13 14 14 13 11 10 8 2 7 10 9 7 7 8 8 8 9 9 10 10 10 9 10 14 20 24 23 23 25 27 27 27 28 28 28 27 25 25 25 25 25 24 22 21 18 15 13 12 12 13 14 13 12 11 10 9
17 16 17 16 14 13 12 12 12 12 10 10 8 3 11 14 11 9 9 11 12 12 12 12 12 12 13 15 17 18 21 25 26 26 27 28 27 27 26 26 25 26 26 26 27 27 27 25 23 21 19 16 14 14 14 15 14 14 14 13 12 11 10
19 20 21 20 17 14 10 10 13 12 9 9 5 5 13 13 10 11 13 14 14 15 16 15 16 18 19 21 22 22 22 23 24 24 25 26 26 26 25 24 25 26 26 27 29 29 28 26 23 21 19 17 17 16 16 16 15 14 14 13 12 10 9
21 22 22 18 16 14 11 11 13 13 10 8 3 8 12 11 11 13 14 15 17 18 18 18 18 18 19 20 21 20 20 21 23 23 22 22 23 25 24 24 25 26 26 27 28 29 28 26 23 22 21 20 19 19 17 16 15 14 13 13 12 10 8
21 22 23 19 16 13 10 9 10 9 7 5 3 11 12 11 13 15 16 18 19 19 18 18 17 16 17 19 20 19 20 21 22 23 23 22 22 22 23 24 25 26 27 27 27 27 26 24 23 23 22 22 22 21 19 16 14 14 13 12 11 9 7
22 23 24 22 17 12 9 9 7 5 5 1 8 14 13 14 16 16 16 18 20 19 17 16 17 16 16 18 19 18 20 22 22 23 23 23 22 21 21 23 24 25 26 26 26 25 25 23 24 25 24 24 24 22 20 18 16 14 13 11 10 8 6
23 23 24 24 20 13 9 9 6 4 3 4 12 15 15 16 17 16 17 19 21 19 16 16 17 16 17 19 19 19 21 22 22 22 23 23 23 22 21 22 23 23 24 24 24 24 24 25 26 27 26 25 24 23 21 19 17 15 13 11 10 8 6
24 24 24 24 22 17 12 9 7 6 3 8 14 16 17 18 17 15 15 18 19 19 17 17 18 17 18 19 20 21 23 22 22 23 23 23 24 23 22 23 23 23 23 23 23 24 26 27 28 29 28 26 24 21 20 19 17 15 13 12 10 8 6
23 24 23 22 21 19 15 11 8 6 5 13 18 18 19 19 17 15 15 15 16 18 18 19 19 19 19 20 21 22 24 24 24 25 25 25 25 24 24 23 23 22 23 23 24 26 28 28 28 29 28 27 24 22 20 18 17 15 13 11 10 8 5
20 23 23 22 20 18 16 14 10 5 10 19 21 18 18 17 15 15 16 16 16 17 17 18 20 20 20 21 22 22 23 24 25 25 26 25 25 24 23 23 23 23 24 26 27 28 28 28 28 27 26 25 23 21 19 18 16 14 12 10 8 6 4
Wind_Direction
280 277 273 268 265 265 266 265 263 264 264 261 260 258 254 251 246 243 246 251 253 252 246 237 231 230 231 230 227 225 224 222 222 222 221 221 221 221 222 218 215 224 222 206 210 208 204 204 202 201 204 206 207 210 213 218 223 226 229 231 232 232 232
284 278 271 266 263 263 265 265 265 265 261 258 258 259 255 249 241 237 239 242 246 249 248 242 235 233 232 230 228 227 226 223 221 219 219 218 218 218 219 217 216 220 215 189 200 203 201 201 201 201 203 204 206 208 210 214 218 222 227 230 231 232 230
285 279 273 269 264 259 258 260 262 263 261 259 258 258 256 250 240 234 233 235 239 245 246 244 239 236 235 231 228 227 227 225 222 218 216 217 217 218 218 215 215 216 209 182 187 194 194 196 199 201 203 205 207 207 208 211 214 217 222 226 229 231 231
289 283 276 269 263 259 258 260 262 262 262 261 259 257 257 252 241 233 231 231 234 238 242 245 242 240 238 233 228 227 226 224 223 220 218 217 217 218 220 218 216 217 211 191 180 190 194 194 196 200 203 203 204 205 205 207 210 214 218 222 226 229 231
300 294 286 275 269 265 264 265 265 264 264 262 260 258 256 254 247 239 234 231 229 230 236 244 248 246 242 235 230 228 226 223 222 221 219 219 219 220 222 222 218 217 215 202 185 184 192 194 195 197 199 199 198 197 199 203 208 211 214 218 223 227 231
309 306 301 292 285 278 273 271 268 266 266 263 259 255 252 250 251 248 241 235 229 226 230 242 248 249 246 238 232 230 228 224 222 220 217 217 219 219 220 220 216 212 212 209 195 183 184 191 193 191 192 196 196 193 192 195 202 208 211 213 218 224 229
314 311 307 302 298 292 284 279 273 267 265 260 253 250 247 247 250 251 246 240 234 231 237 245 243 241 243 241 236 231 229 226 221 219 218 218 218 217 216 215 213 208 207 208 199 187 187 190 191 190 190 193 195 194 194 193 192 197 204 209 216 222 225
311 308 304 301 299 296 289 283 276 270 264 256 250 246 246 247 248 248 247 247 244 242 244 243 236 233 237 243 243 238 231 226 222 218 218 218 217 215 213 213 210 205 204 206 201 193 190 188 189 192 190 188 189 192 198 198 192 190 196 204 214 220 222
305 302 298 296 294 293 289 280 273 269 260 251 246 244 242 242 243 244 245 248 251 250 245 238 232 229 231 238 246 248 241 233 227 222 220 218 215 211 210 210 206 202 201 203 202 196 189 186 189 192 187 186 191 194 196 195 194 196 197 200 208 215 219
301 298 294 290 287 287 284 277 270 264 256 248 242 239 239 239 239 240 242 245 248 249 243 237 231 228 228 235 244 248 247 242 235 230 227 224 218 212 209 206 202 201 201 201 203 199 191 187 194 196 192 192 196 197 193 190 193 196 194 194 203 214 220
299 297 293 287 282 280 278 275 268 261 253 247 241 237 236 237 239 240 242 244 244 243 239 234 230 229 232 237 236 236 241 246 243 238 234 230 225 218 214 210 205 203 202 202 206 205 198 196 201 200 198 197 196 195 193 192 193 192 188 188 195 208 218
296 295 291 284 278 273 271 271 267 259 251 245 241 238 235 236 237 239 241 241 241 240 237 233 231 231 233 231 226 228 237 242 243 241 237 233 230 225 223 219 215 212 207 204 208 208 205 205 206 202 200 199 196 193 194 194 194 193 191 190 192 195 201
293 292 288 281 275 271 268 266 263 258 251 246 242 241 239 237 237 238 237 237 237 236 234 231 230 230 230 228 228 234 240 238 236 238 236 233 230 228 228 226 224 222 217 211 209 209 212 212 208 203 204 203 197 192 191 192 196 198 196 194 196 196 193
292 292 288 282 276 272 269 267 263 258 255 252 249 246 244 241 239 238 236 235 234 233 231 229 228 227 227 227 228 231 234 231 230 231 230 228 226 225 226 226 225 224 221 216 212 211 215 216 212 209 209 205 200 196 194 194 197 199 197 198 200 198 193
289 289 289 286 279 270 267 269 267 260 255 255 254 253 251 248 245 243 242 240 237 234 232 230 229 229 228 226 226 227 227 226 226 225 223 221 220 221 223 223 222 221 218 216 215 215 217 217 215 214 212 205 201 201 202 202 202 200 197 194 189 185 186
287 287 289 293 291 282 277 279 274 262 256 256 257 258 256 253 250 246 244 243 240 237 236 235 232 231 229 229 228 228 226 224 223 220 218 217 216 217 219 221 222 222 219 217 217 217 217 216 215 215 214 207 202 202 204 202 198 195 188 179 171 171 182
287 290 293 295 297 296 291 288 282 270 264 262 260 258 254 251 249 245 241 240 239 238 239 239 237 233 230 230 230 229 226 223 221 217 215 215 214 212 213 216 218 218 217 216 216 216 215 214 213 213 213 207 201 201 203 195 184 182 180 174 169 177 187
292 294 296 291 291 294 291 288 288 281 272 267 263 257 252 249 246 242 239 237 236 235 236 238 239 237 234 233 232 230 227 224 219 215 213 213 211 207 206 208 210 209 208 208 210 211 211 210 210 209 207 204 202 203 203 196 187 183 181 178 179 184 188
299 295 296 293 291 293 290 285 285 284 277 273 269 264 260 257 250 243 241 238 234 233 233 234 238 238 237 236 234 231 229 224 218 214 212 210 205 201 202 203 201 199 197 196 196 198 199 199 199 198 195 196 198 200 201 202 200 193 186 183 185 183 177
300 294 290 287 287 291 291 286 284 287 292 292 288 281 277 271 262 253 249 245 240 236 232 230 232 235 235 233 231 228 227 223 217 213 211 207 201 200 200 198 196 194 192 189 186 186 185 184 183 180 178 179 184 189 192 199 203 198 193 193 195 192 190
308 306 301 297 300 306 306 299 296 307 317 313 301 291 284 278 272 264 259 256 249 240 232 227 226 228 229 226 224 223 223 223 221 215 207 202 203 203 198 192 189 187 184 179 175 173 172 171 168 166 166 169 174 180 184 188 193 197 201 207 208 204 205
321 335 337 334 336 335 326 312 307 314 316 308 298 291 286 280 276 270 264 258 248 235 229 226 223 225 226 221 217 218 220 224 224 212 200 199 202 198 189 184 179 174 169 166 164 162 160 159 159 157 159 165 170 175 179 184 190 197 206 216 222 222 220
327 342 342 342 346 344 333 316 303 306 308 306 303 298 290 281 276 273 263 250 237 229 226 224 223 226 225 216 212 212 214 221 219 202 191 193 193 181 175 174 169 165 162 159 157 155 153 154 155 156 158 164 169 173 177 184 192 200 210 221 230 233 233
323 331 337 340 340 339 337 331 321 315 315 317 315 307 296 286 281 273 254 237 231 228 224 220 220 220 212 205 205 206 209 216 207 187 180 183 179 170 167 166 163 161 158 154 152 153 152 153 157 160 162 166 169 171 176 184 194 208 221 228 231 231 229
322 328 336 334 328 328 334 335 331 327 325 325 323 316 304 294 283 251 221 219 221 218 214 212 212 206 197 195 197 199 205 204 185 173 172 172 167 162 161 160 159 157 154 152 151 152 152 155 161 165 167 169 170 173 179 191 205 216 222 221 219 218 217
325 331 335 329 323 324 326 323 322 325 328 328 328 327 320 300 199 169 180 197 196 189 188 187 184 180 178 181 188 194 192 176 163 160 159 158 158 157 157 157 157 154 153 152 151 152 155 159 163 166 167 169 173 179 187 198 206 206 205 203 198 192 190
326 332 332 326 321 321 320 315 315 326 336 337 337 344 54 133 134 140 154 154 149 151 151 152 156 161 164 163 163 167 160 151 148 147 146 148 153 156 157 159 159 158 157 155 153 154 157 158 161 164 167 170 175 179 184 188 190 188 186 182 176 166 156
326 327 322 316 311 312 316 312 311 324 341 346 351 68 134 138 135 138 143 141 140 141 141 141 141 137 133 127 122 123 129 133 137 139 141 145 150 153 154 157 157 155 153 154 154 153 153 156 160 164 166 167 167 169 173 176 178 179 176 168 161 155 147
328 326 323 319 312 309 307 302 306 317 327 334 341 149 151 145 140 144 141 139 143 141 134 129 125 121 117 115 113 113 116 119 122 127 132 139 144 147 149 152 153 151 150 153 155 154 154 157 160 161 162 160 159 164 168 170 171 172 168 161 155 149 144
337 337 340 342 334 326 313 295 302 310 314 321 306 173 161 145 140 143 138 139 143 136 125 119 115 113 115 116 115 114 113 115 118 119 122 129 136 143 148 150 152 153 153 155 158 158 159 161 159 157 158 158 159 162 162 163 166 166 161 157 150 142 140
349 349 352 354 349 345 339 318 312 312 314 317 180 164 153 137 138 139 137 144 143 127 117 116 113 112 116 118 118 119 120 122 124 125 126 129 134 142 149 151 152 155 157 158 160 160 161 163 160 158 160 162 162 161 157 157 161 159 156 153 146 141 143
360 358 355 352 352 359 2 351 341 331 330 342 155 153 142 136 139 135 135 145 141 123 116 119 117 116 119 120 120 123 126 128 130 132 134 136 136 140 149 154 157 160 162 162 162 161 162 163 162 162 164 165 163 159 156 156 158 156 155 154 151 151 156
9 5 357 355 2 12 11 5 10 2 358 126 147 145 136 135 135 130 136 145 137 122 118 122 120 121 124 125 125 128 130 132 134 135 137 139 140 143 151 157 160 164 165 165 166 165 163 163 164 165 165 164 163 160 158 157 158 158 160 161 162 167 174
7 9 3 3 12 22 23 28 36 26 45 133 139 134 128 126 120 117 131 140 133 125 125 126 125 125 128 130 132 134 135 135 136 138 140 143 146 150 155 159 162 165 165 165 165 165 165 166 167 167 164 162 162 161 159 159 160 163 165 167 171 175 180
354 3 6 10 18 23 26 36 38 28 96 130 130 127 127 124 114 109 118 124 125 128 131 132 133 134 135 137 139 140 142 142 143 146 148 149 151 154 156 159 162 164 165 165 165 166 168 168 169 168 167 165 164 164 163 163 165 169 172 173 176 177 179
349 359 8 16 24 27 31 36 35 50 116 126 129 135 137 129 118 116 119 121 125 131 134 135 139 141 141 143 145 146 147 148 149 152 155 155 156 158 159 161 164 165 165 167 167 168 169 169 169 169 168 167 167 168 169 168 168 172 176 177 180 184 187